Simultaneous Nadir Overpasses (SNOs) Predictions

Prediction of SNOs between METOP-B and NOAA-19 Satellite Orbit:

Table of predicted SNOs for the next 14.0 days since TLE Epoch: 1/24/2025
Index Date (METOP-B) Time (METOP-B) Lat,Lon (METOP-B) SZA (METOP-B ) Date (NOAA-19) Time (NOAA-19) Lat,Lon (NOAA-19) SZA (NOAA-19 ) Distance(km) Time Diff (sec)
1 02/02/2025 17:56:47 -80.47, 165.44 76.71 02/02/2025 17:55:43 -80.46, 165.56 76.73 2.30 64
2 02/02/2025 18:47:28 80.47, -27.28 103.28 02/02/2025 18:46:37 80.48, -27.41 103.23 2.52 51
3 02/02/2025 19:38:08 -80.44, 140.39 76.69 02/02/2025 19:37:39 -80.44, 140.37 76.71 0.22 29
4 02/02/2025 20:28:48 80.42, -52.01 103.34 02/02/2025 20:28:31 80.42, -51.93 103.34 1.60 17
5 02/02/2025 21:19:29 -80.42, 115.33 76.68 02/02/2025 21:19:35 -80.43, 115.18 76.69 2.74 6
6 02/02/2025 22:10:09 80.40, -77.07 103.35 02/02/2025 22:10:27 80.40, -77.12 103.36 0.94 18
7 02/02/2025 23:00:49 -80.37, 90.59 76.62 02/02/2025 23:01:29 -80.37, 90.65 76.59 1.33 40
8 02/02/2025 23:51:29 80.35,-101.82 103.41 02/02/2025 23:52:21 80.34,-101.65 103.46 3.16 52



Historial Predications of SNOs between METOP-B and NOAA-19
